Regional Weather Roundup
Issued by NWS

Home | Current Version | Previous Version | Text Only | Print | Product List | Glossary Off
Versions: 1 2 3 4 5 6 7 8 9 10 11 12 13 14 15 16 17 18 19 20 21 22 23 24 25 26 27 28 29 30 31 32 33 34 35 36 37 38 39 40 41 42 43 44 45 46 47 48 49 50

000
ASUS43 KBIS 210302
RWRND

NORTH DAKOTA REGIONAL WEATHER ROUNDUP
NATIONAL WEATHER SERVICE BISMARCK ND
900 PM CST MON FEB 20 2017

NOTE: "FAIR" INDICATES FEW OR NO CLOUDS BELOW 12,000 FEET WITH NO
SIGNIFICANT WEATHER AND/OR OBSTRUCTIONS TO VISIBILITY.


NDZ001>003-009>011-017-210400-
NORTHWEST NORTH DAKOTA

CITY           SKY/WX    TMP DP  RH WIND       PRES   REMARKS
WILLISTON      FAIR      34  29  82 CALM      29.66F
MINOT          FAIR      37  32  82 SW9       29.69F
MINOT AFB      CLEAR     32  29  88 SW8       29.68F
$$

NDZ018>021-031>035-040>046-210400-
SOUTHWEST NORTH DAKOTA

CITY           SKY/WX    TMP DP  RH WIND       PRES   REMARKS
BISMARCK       FAIR      36  32  85 E3        29.75F
DICKINSON      FAIR      34  26  72 S7        29.68F
GARRISON         N/A     33  30  88 SE3       29.71F
HETTINGER ARPT CLOUDY    40  25  55 SE6       29.74S
$$

NDZ004>008-012>016-024-026-027-054-210400-
NORTHEAST NORTH DAKOTA

CITY           SKY/WX    TMP DP  RH WIND       PRES   REMARKS
GRAND FORKS    CLEAR     33  28  81 W8        29.72R
GRND FRKS AFB  CLEAR     32  31  99 SW3       29.71R
DEVILS LAKE    FAIR      32  31  96 SW10      29.71S
$$

NDZ022-023-025-028>030-036>039-047>053-210400-
SOUTHEAST NORTH DAKOTA

CITY           SKY/WX    TMP DP  RH WIND       PRES   REMARKS
FARGO          CLEAR     34  32  92 SW7       29.76R
JAMESTOWN      FAIR      35  32  88 W5        29.74S
$$





USA.gov is the U.S. government's official web portal to all federal, state and local government web resources and services.